This is the latest recevied weather packets stored in our database for station/object W3AJR. If no packets are shown the sender has not sent any weather packets the latest 10 day(s).
| Time | Temp. | Humidity | Pressure | Rain* | Wind** | Luminosity | Snow |
|---|---|---|---|---|---|---|---|
| 1778152014 | 11.67° C | 94% | 1011.5 hPa | 0 mm | - | 33 W/m² | - |
| 1778151711 | 11.67° C | 94% | 1011.6 hPa | 0 mm | - | 27 W/m² | - |
| 1778151408 | 11.67° C | 94% | 1011.6 hPa | 0 mm | - | 10 W/m² | - |
| 1778151103 | 11.67° C | 94% | 1011.4 hPa | 0 mm | - | 8 W/m² | - |
| 1778150801 | 11.67° C | 95% | 1011.5 hPa | 0 mm | - | 9 W/m² | - |
| 1778150497 | 11.67° C | 95% | 1011.6 hPa | 0 mm | - | 4 W/m² | - |
| 1778150193 | 11.67° C | 95% | 1011.6 hPa | 0 mm | - | 0 W/m² | - |
| 1778149890 | 11.67° C | 95% | 1011.3 hPa | 0 mm | - | 0 W/m² | - |
| 1778149587 | 11.67° C | 95% | 1011.4 hPa | 0 mm | - | 1 W/m² | - |
| 1778149283 | 11.67° C | 95% | 1011.1 hPa | 0 mm | - | 2 W/m² | - |
| 1778148979 | 11.67° C | 96% | 1011.3 hPa | 0 mm | - | 0 W/m² | - |
| 1778148675 | 11.67° C | 96% | 1011.3 hPa | 0 mm | - | 0 W/m² | - |
| 1778148372 | 11.67° C | 96% | 1011.2 hPa | 0 mm | - | 0 W/m² | - |
| 1778148071 | 11.67° C | 96% | 1011.3 hPa | 0 mm | - | 0 W/m² | - |
| 1778147768 | 11.67° C | 96% | 1011.2 hPa | 0 mm | - | 0 W/m² | - |
| 1778147464 | 11.67° C | 96% | 1011.1 hPa | 0 mm | - | 0 W/m² | - |
| 1778147160 | 11.67° C | 96% | 1011 hPa | 0 mm | - | 0 W/m² | - |
| 1778146858 | 11.67° C | 97% | 1011.1 hPa | 0 mm | - | 0 W/m² | - |
| 1778146555 | 11.67° C | 97% | 1011 hPa | 0 mm | - | 0 W/m² | - |
| 1778146254 | 11.67° C | 97% | 1011 hPa | 0 mm | - | 0 W/m² | - |
| 1778145950 | 11.67° C | 97% | 1010.9 hPa | 0 mm | - | 0 W/m² | - |
| 1778145647 | 11.11° C | 98% | 1011 hPa | 0 mm | - | 0 W/m² | - |
| 1778145344 | 11.11° C | 98% | 1011 hPa | 0 mm | - | 0 W/m² | - |
| 1778145039 | 11.11° C | 98% | 1010.8 hPa | 0 mm | - | 0 W/m² | - |
| 1778144735 | 11.11° C | 98% | 1011.1 hPa | 0 mm | - | 0 W/m² | - |
* Rain latest hour (hover to see other rain measurements)
** Current wind speed in m/s (hover to see current wind gust speed)